Regional Weather Roundup
Issued by NWS Goodland, KS

Home | Current Version | Previous Version | Text Only | Print | Product List | Glossary Off
Versions: 1 2 3 4 5 6 7 8 9 10 11 12 13 14 15 16 17 18 19 20 21 22 23 24 25 26 27 28 29 30 31 32 33 34 35 36 37 38 39 40 41 42 43 44 45 46 47 48 49 50

000
ASUS43 KGLD 310908
RWRGLD

GOODLAND FORECAST AREA HOURLY WEATHER ROUNDUP
NATIONAL WEATHER SERVICE GOODLAND KS
300 AM MDT TUE MAY 31 2016

...OFFICIAL OBSERVATIONS...

CITY           SKY/WX    TMP DP  RH WIND       PRES   REMARKS
GOODLAND KS    CLEAR     50  47  89 CALM      29.99R
HILL CITY KS   CLOUDY    60  57  89 N3        29.94R
IMPERIAL NEB   CLOUDY    56  50  80 N15       30.02F
MCCOOK NEB     CLOUDY    57  53  86 N12       29.98S
AKRON CO       PTCLDY    49  47  93 N8        30.08R
BURLINGTON CO  CLEAR     52  45  77 N6        30.02R
LIMON CO       MOCLDY    48  45  89 N16       30.07R
$$

...UNOFFICIAL OBSERVATIONS...

CITY           SKY/WX    TMP DP  RH WIND       PRES   REMARKS
GOVE KS          N/A    N/A N/A N/A MISG        N/A
LENORA KS        N/A     57  32  39 MISG        N/A
SHARON SPRINGS   N/A     54  51  90 CALM        N/A
TRIBUNE KS     CLOUDY    57  54  88 CALM      29.97
KIT CARSON CO    N/A     52  47  84 MISG        N/A
YUMA CO          N/A     52  49  90 NE7         N/A
$$



USA.gov is the U.S. government's official web portal to all federal, state and local government web resources and services.